Budapest Ferihegy, Hungary

4:25 PM CEST on June 27, 2017 (GMT +0200)
Ferihegy

Weather History for LHBP - November, 2013

Change the Weather History Date:

Tuesday, November 19, 2013

  Actual Average Record
Temperature  
Mean Temperature 40 °F -  
Max Temperature 44 °F 39 °F 60 °F (2002)
Min Temperature 37 °F 27 °F 23 °F (1997)
Degree Days  
Heating Degree Days 24    
Moisture  
Dew Point 41 °F    
Average Humidity 96    
Maximum Humidity 100    
Minimum Humidity 81    
Precipitation  
Precipitation 0.00 in - - ()
Sea Level Pressure  
Sea Level Pressure 29.93 in    
Wind  
Wind Speed 11 mph ()    
Max Wind Speed 15 mph    
Max Gust Speed -    
Visibility 3.2 miles    
Events      
Averages and records for this station are not official NWS values.
T = Trace of Precipitation, MM = Missing Value Source: Averaged Metar Reports

Daily Weather History Graph

Daily Weather History Graph

Search for Another Location

Airport or City:

Trip Planner

Search our weather history database for the weather conditions in past years. The results will help you decide how hot, cold, wet, or windy it might be!

Date:

Astronomy

Nov. 19, 2013 Rise Set
Actual Time 6:53 AM CET 4:02 PM CET
Civil Twilight 6:19 AM CET 4:36 PM CET
Nautical Twilight 5:41 AM CET 5:14 PM CET
Astronomical Twilight 5:05 AM CET 5:50 PM CET
Moon 5:37 PM CET (11/19) 8:19 AM CET (11/19)
Length of Visible Light 10h 17m
Length of Day
9h 09m
Full, 97% of the Moon is Illuminated
Nov 19
Full
Nov 25
Last Quarter
Dec 3
New
Dec 9
First Quarter
Dec 17
Full

Hourly Weather History & Observations

Time (CET) Temp. Windchill Dew Point Humidity Pressure Visibility Wind Dir Wind Speed Gust Speed Precip Events Conditions
12:00 AM 41.0 °F 33.9 °F 41.0 °F 100% 30.06 in 1.6 mi ESE 12.7 mph - N/A   Mostly Cloudy
12:30 AM 41.0 °F 34.3 °F 41.0 °F 100% 30.06 in 1.9 mi ESE 11.5 mph - N/A   Overcast
1:00 AM 41.0 °F 33.9 °F 41.0 °F 100% 30.04 in 2.2 mi ESE 12.7 mph - N/A   Overcast
1:30 AM 41.0 °F 34.3 °F 41.0 °F 100% 30.04 in 2.5 mi ESE 11.5 mph - N/A   Mostly Cloudy
2:00 AM 41.0 °F 34.7 °F 41.0 °F 100% 30.04 in 2.5 mi ESE 10.4 mph - N/A   Overcast
2:30 AM 41.0 °F 34.7 °F 41.0 °F 100% 30.04 in 2.8 mi ESE 10.4 mph - N/A   Mostly Cloudy
3:00 AM 41.0 °F 34.7 °F 39.2 °F 93% 30.04 in 2.8 mi ESE 10.4 mph - N/A   Mostly Cloudy
3:30 AM 41.0 °F 34.3 °F 39.2 °F 93% 30.04 in 3.1 mi East 11.5 mph - N/A   Mostly Cloudy
4:00 AM 39.2 °F 32.0 °F 39.2 °F 100% 30.01 in 3.1 mi East 11.5 mph - N/A   Mostly Cloudy
4:30 AM 41.0 °F 34.3 °F 39.2 °F 93% 30.01 in 3.1 mi ESE 11.5 mph - N/A   Mostly Cloudy
5:00 AM 39.2 °F 31.6 °F 39.2 °F 100% 30.01 in 3.1 mi East 12.7 mph - N/A   Mostly Cloudy
5:30 AM 39.2 °F 32.0 °F 39.2 °F 100% 30.01 in 3.1 mi ESE 11.5 mph - N/A   Mostly Cloudy
6:00 AM 39.2 °F 31.2 °F 37.4 °F 93% 30.01 in 3.7 mi ESE 13.8 mph - N/A   Mostly Cloudy
6:30 AM 39.2 °F 32.5 °F 37.4 °F 93% 30.01 in 2.5 mi East 10.4 mph - N/A   Mostly Cloudy
7:00 AM 37.4 °F 29.8 °F 37.4 °F 100% 30.01 in 2.5 mi East 11.5 mph - N/A   Mostly Cloudy
7:30 AM 39.2 °F 32.5 °F 37.4 °F 93% 30.01 in 1.9 mi East 10.4 mph - N/A   Mostly Cloudy
8:00 AM 39.2 °F 33.6 °F 39.2 °F 100% 30.01 in 2.2 mi East 8.1 mph - N/A   Mostly Cloudy
8:30 AM 39.2 °F 32.0 °F 39.2 °F 100% 30.01 in 2.2 mi East 11.5 mph - N/A   Mostly Cloudy
9:00 AM 39.2 °F 32.5 °F 39.2 °F 100% 29.98 in 2.5 mi East 10.4 mph - N/A   Scattered Clouds
9:30 AM 41.0 °F 34.3 °F 41.0 °F 100% 29.98 in 2.8 mi East 11.5 mph - N/A   Scattered Clouds
10:00 AM 41.0 °F 34.7 °F 41.0 °F 100% 29.98 in 3.1 mi East 10.4 mph - N/A   Scattered Clouds
10:30 AM 42.8 °F 35.8 °F 41.0 °F 93% 29.95 in 3.1 mi East 13.8 mph - N/A   Partly Cloudy
11:00 AM 42.8 °F 35.8 °F 41.0 °F 93% 29.95 in 3.7 mi East 13.8 mph - N/A   Partly Cloudy
11:30 AM 41.0 °F 34.3 °F 41.0 °F 100% 29.95 in 3.7 mi East 11.5 mph - N/A   Scattered Clouds
12:00 PM 42.8 °F 36.2 °F 41.0 °F 93% 29.95 in 3.7 mi East 12.7 mph - N/A   Mostly Cloudy
12:30 PM 42.8 °F 36.6 °F 41.0 °F 93% 29.95 in 3.7 mi East 11.5 mph - N/A   Mostly Cloudy
1:00 PM 44.6 °F 39.2 °F 42.8 °F 93% 29.92 in 3.7 mi East 10.4 mph - N/A   Overcast
1:30 PM 44.6 °F 39.2 °F 42.8 °F 93% 29.92 in 3.7 mi ENE 10.4 mph - N/A   Mostly Cloudy
2:00 PM 44.6 °F 38.4 °F 42.8 °F 93% 29.89 in 5.0 mi ENE 12.7 mph - N/A   Mostly Cloudy
2:30 PM 44.6 °F 39.2 °F 42.8 °F 93% 29.89 in 5.0 mi ENE 10.4 mph - N/A   Mostly Cloudy
3:00 PM 44.6 °F 38.4 °F 42.8 °F 93% 29.89 in 5.0 mi ENE 12.7 mph - N/A   Mostly Cloudy
3:30 PM 44.6 °F 39.7 °F 42.8 °F 93% 29.89 in 5.0 mi ENE 9.2 mph - N/A   Partly Cloudy
4:00 PM 42.8 °F 37.0 °F 42.8 °F 100% 29.86 in 5.0 mi ENE 10.4 mph - N/A   Partly Cloudy
4:30 PM 42.8 °F 35.4 °F 42.8 °F 100% 29.86 in 3.1 mi ENE 15.0 mph - N/A   Mist
5:00 PM 42.8 °F 36.2 °F 42.8 °F 100% 29.86 in 3.1 mi ENE 12.7 mph - N/A   Mist
5:30 PM 41.0 °F 33.9 °F 41.0 °F 100% 29.86 in 3.1 mi ENE 12.7 mph - N/A   Mist
6:00 PM 41.0 °F 34.3 °F 41.0 °F 100% 29.86 in 3.1 mi East 11.5 mph - N/A   Partly Cloudy
6:30 PM 41.0 °F 34.3 °F 41.0 °F 100% 29.83 in 2.5 mi ENE 11.5 mph - N/A   Mist
7:00 PM 41.0 °F 33.9 °F 41.0 °F 100% 29.83 in 2.5 mi East 12.7 mph - N/A   Scattered Clouds
7:30 PM 41.0 °F 35.2 °F 41.0 °F 100% 29.83 in 2.5 mi East 9.2 mph - N/A   Scattered Clouds
8:00 PM 42.8 °F 36.6 °F 41.0 °F 93% 29.80 in 2.5 mi East 11.5 mph - N/A   Scattered Clouds
8:30 PM 42.8 °F 36.2 °F 41.0 °F 93% 29.80 in 3.7 mi East 12.7 mph - N/A   Unknown
9:00 PM 42.8 °F 35.8 °F 41.0 °F 93% 29.77 in 5.0 mi East 13.8 mph - N/A   Unknown
9:30 PM 44.6 °F 38.8 °F 41.0 °F 87% 29.77 in - East 11.5 mph - N/A   Clear
10:00 PM 44.6 °F 38.4 °F 41.0 °F 87% 29.77 in - East 12.7 mph - N/A   Clear
10:30 PM 44.6 °F 39.2 °F 39.2 °F 81% 29.77 in - East 10.4 mph - N/A   Clear
11:00 PM 44.6 °F 38.8 °F 39.2 °F 81% 29.77 in - East 11.5 mph - N/A   Clear
11:30 PM 42.8 °F 36.2 °F 39.2 °F 87% 29.74 in - East 12.7 mph - N/A   Clear